Weather History for Broomfield, CO

Change the Weather History Date:

Thursday, April 26, 2012

  Actual Average Record
Temperature  
Mean Temperature 66 °F -  
Max Temperature 78 °F 59 °F 80 °F (1987)
Min Temperature 53 °F 38 °F 20 °F (1988)
Growing Degree Days 16 (Base 50)    
Moisture  
Dew Point 34 °F    
Average Humidity 37    
Maximum Humidity 82    
Minimum Humidity 15    
Precipitation  
Precipitation 0.00 in - - ()
Sea Level Pressure  
Sea Level Pressure 29.93 in    
Wind  
Wind Speed 6 mph (SSW)    
Max Wind Speed 29 mph    
Max Gust Speed 44 mph    
Visibility 10 miles    
Events Rain , Thunderstorm    
Averages and records for this station are not official NWS values.
T = Trace of Precipitation, MM = Missing Value Source: NWS Daily Summary

Daily Weather History Graph

Daily Weather History Graph

Search for Another Location

Airport:

Trip Planner

Search our weather history database for the weather conditions in past years. The results will help you decide how hot, cold, wet, or windy it might be!

Date:

Astronomy

Apr. 26, 2012 Rise Set
Actual Time 6:06 AM MDT 7:50 PM MDT
Civil Twilight 5:37 AM MDT 8:19 PM MDT
Nautical Twilight 5:02 AM MDT 8:54 PM MDT
Astronomical Twilight 4:25 AM MDT 9:32 PM MDT
Moon 9:48 AM MDT (4/26) No Moon Set
Length of Visible Light 14h 41m
Length of Day
13h 44m
Waxing Crescent, 25% of the Moon is Illuminated
Apr 26
Waxing Crescent
Apr 29
First Quarter
May 5
Full
May 12
Last Quarter
May 20
New

Hourly Weather History & Observations

Time (MDT) Temp. Dew Point Humidity Pressure Visibility Wind Dir Wind Speed Gust Speed Precip Events Conditions
12:14 AM 62.6 °F 32.0 °F 32% 30.05 in 10.0 mi WNW 8.1 mph - N/A   Clear
12:34 AM 60.8 °F 32.0 °F 34% 30.05 in 10.0 mi NW 8.1 mph - N/A   Clear
12:54 AM 62.6 °F 30.2 °F 30% 30.04 in 10.0 mi WNW 9.2 mph - N/A   Clear
1:14 AM 60.8 °F 32.0 °F 34% 30.05 in 10.0 mi Calm Calm - N/A   Clear
1:34 AM 62.6 °F 30.2 °F 30% 30.05 in 10.0 mi NW 8.1 mph - N/A   Clear
1:54 AM 60.8 °F 30.2 °F 31% 30.05 in 10.0 mi Calm Calm - N/A   Clear
2:14 AM 60.8 °F 32.0 °F 34% 30.05 in 10.0 mi South 3.5 mph - N/A   Clear
2:34 AM 60.8 °F 33.8 °F 36% 30.05 in 10.0 mi Calm Calm - N/A   Clear
2:54 AM 60.8 °F 32.0 °F 34% 30.05 in 10.0 mi Calm Calm - N/A   Clear
3:14 AM 60.8 °F 32.0 °F 34% 30.04 in 10.0 mi Calm Calm - N/A Thunderstorm Clear
3:34 AM 60.8 °F 32.0 °F 34% 30.03 in 10.0 mi NNW 9.2 mph - N/A   Clear
3:54 AM 62.6 °F 32.0 °F 32% 30.03 in 10.0 mi North 5.8 mph - N/A   Clear
4:14 AM 59.0 °F 33.8 °F 39% 30.04 in 10.0 mi Calm Calm - N/A   Clear
4:34 AM 59.0 °F 33.8 °F 39% 30.05 in 10.0 mi SE 5.8 mph - N/A   Clear
4:54 AM 59.0 °F 33.8 °F 39% 30.05 in 10.0 mi ESE 4.6 mph - N/A   Clear
5:14 AM 59.0 °F 33.8 °F 39% 30.04 in 10.0 mi Calm Calm - N/A   Clear
5:34 AM 59.0 °F 35.6 °F 42% 30.02 in 10.0 mi East 4.6 mph - N/A   Clear
5:51 AM 59.0 °F 35.6 °F 42% 30.03 in 30.0 mi West 8.1 mph - N/A   Mostly Cloudy
5:54 AM 55.4 °F 35.6 °F 47% 30.03 in 10.0 mi WNW 3.5 mph 9.2 mph N/A   Clear
6:47 AM 59.0 °F 35.6 °F 42% 30.03 in 45.0 mi Calm Calm - N/A   Mostly Cloudy
7:55 AM 62.6 °F 35.6 °F 37% 30.03 in 60.0 mi Calm Calm - N/A   Mostly Cloudy
8:50 AM 66.2 °F 32.0 °F 28% 30.01 in 60.0 mi Variable 4.6 mph - N/A   Scattered Clouds
9:50 AM 68.0 °F 32.0 °F 26% 30.01 in 60.0 mi Calm Calm - N/A   Mostly Cloudy
10:46 AM 73.4 °F 32.0 °F 22% 29.99 in 60.0 mi Variable 4.6 mph - N/A   Mostly Cloudy
11:47 AM 75.2 °F 30.2 °F 19% 29.95 in 60.0 mi East 11.5 mph 16.1 mph N/A   Mostly Cloudy
12:55 PM 78.8 °F 26.6 °F 15% 29.91 in 60.0 mi SSE 11.5 mph 18.4 mph N/A   Mostly Cloudy
1:47 PM 77.0 °F 26.6 °F 16% 29.88 in 60.0 mi South 11.5 mph 16.1 mph N/A   Mostly Cloudy
2:55 PM 75.2 °F 26.6 °F 17% 29.84 in 60.0 mi SE 5.8 mph - N/A   Mostly Cloudy
3:50 PM 75.2 °F 28.4 °F 18% 29.80 in 40.0 mi SW 21.9 mph 43.7 mph N/A   Overcast
4:49 PM 71.6 °F 32.0 °F 23% 29.79 in 40.0 mi SSE 8.1 mph - N/A   Mostly Cloudy
5:45 PM 71.6 °F 35.6 °F 27% 29.77 in 40.0 mi West 6.9 mph - N/A   Mostly Cloudy
6:08 PM 69.8 °F 33.8 °F 27% 29.78 in 40.0 mi SW 6.9 mph - N/A   Mostly Cloudy
6:29 PM 69.8 °F 35.6 °F 28% 29.80 in 40.0 mi SSW 24.2 mph 29.9 mph N/A Rain , Thunderstorm Light Thunderstorms and Rain
6:49 PM 64.4 °F 39.2 °F 40% 29.76 in 40.0 mi South 5.8 mph - N/A   Mostly Cloudy
7:50 PM 62.6 °F 41.0 °F 45% 29.72 in 30.0 mi Calm Calm - N/A   Mostly Cloudy
8:50 PM 62.6 °F 39.2 °F 42% 29.74 in 20.0 mi Calm Calm - N/A   Mostly Cloudy
9:30 PM 64.4 °F 39.2 °F 40% 29.78 in 10.0 mi South 28.8 mph 36.8 mph N/A Rain , Thunderstorm Light Rain
9:50 PM 55.4 °F 44.6 °F 67% 29.78 in 10.0 mi South 20.7 mph 35.7 mph N/A Rain , Thunderstorm Light Rain
11:14 PM 53.6 °F 46.4 °F 77% 29.72 in 10.0 mi SE 3.5 mph - N/A Thunderstorm Clear
11:34 PM 53.6 °F 46.4 °F 77% 29.70 in 10.0 mi South 3.5 mph - N/A   Clear
11:54 PM 53.6 °F 48.2 °F 82% 29.70 in 10.0 mi SSW 3.5 mph - N/A   Clear